TimeCDT,TemperatureF,Dew PointF,Humidity,Sea Level PressureIn,VisibilityMPH,Wind Direction,Wind SpeedMPH,Gust SpeedMPH,PrecipitationIn,Events,Conditions,WindDirDegrees,DateUTC
12:53 AM,57.0,55.9,96,30.07,6.0,Calm,Calm,-,N/A,,Clear,0,2012-10-04 05:53:00
1:53 AM,55.9,55.0,97,30.07,5.0,East,3.5,-,N/A,,Clear,80,2012-10-04 06:53:00
2:53 AM,55.0,54.0,96,30.07,4.0,Calm,Calm,-,N/A,,Clear,0,2012-10-04 07:53:00
3:53 AM,54.0,53.1,97,30.08,3.0,East,3.5,-,N/A,,Clear,100,2012-10-04 08:53:00
4:03 AM,53.1,52.0,96,30.09,1.8,Calm,Calm,-,N/A,,Clear,0,2012-10-04 09:03:00
4:24 AM,55.0,54.0,96,30.10,2.5,Calm,Calm,-,N/A,,Clear,0,2012-10-04 09:24:00
4:33 AM,54.0,53.1,97,30.10,0.8,Calm,Calm,-,N/A,,Clear,0,2012-10-04 09:33:00
4:42 AM,54.0,53.1,97,30.10,2.0,ESE,3.5,-,N/A,,Clear,110,2012-10-04 09:42:00
4:53 AM,53.1,53.1,100,30.10,1.5,Calm,Calm,-,N/A,,Clear,0,2012-10-04 09:53:00
5:14 AM,53.1,52.0,96,30.11,0.2,Calm,Calm,-,N/A,Fog,Fog,0,2012-10-04 10:14:00
5:21 AM,53.1,52.0,96,30.12,0.2,Calm,Calm,-,N/A,Fog,Fog,0,2012-10-04 10:21:00
5:34 AM,53.1,52.0,96,30.12,0.5,East,4.6,-,N/A,Fog,Fog,80,2012-10-04 10:34:00
5:48 AM,53.6,51.8,94,30.12,1.2,Calm,Calm,-,N/A,,Clear,0,2012-10-04 10:48:00
5:53 AM,53.1,53.1,100,30.12,1.5,Calm,Calm,-,N/A,,Clear,0,2012-10-04 10:53:00
6:53 AM,53.1,52.0,96,30.13,1.0,Calm,Calm,-,N/A,,Clear,0,2012-10-04 11:53:00
7:00 AM,53.1,52.0,96,30.14,0.5,Calm,Calm,-,N/A,Fog,Fog,0,2012-10-04 12:00:00
7:07 AM,53.1,52.0,96,30.14,0.2,Calm,Calm,-,N/A,Fog,Fog,0,2012-10-04 12:07:00
7:47 AM,53.6,53.6,100,30.15,1.0,East,3.5,-,N/A,,Clear,100,2012-10-04 12:47:00
7:53 AM,54.0,53.1,97,30.15,3.0,Calm,Calm,-,N/A,,Clear,0,2012-10-04 12:53:00
8:05 AM,55.9,55.0,97,30.16,2.0,Calm,Calm,-,N/A,,Clear,0,2012-10-04 13:05:00
8:22 AM,57.9,55.9,93,30.17,3.0,Calm,Calm,-,N/A,,Clear,0,2012-10-04 13:22:00
8:53 AM,62.1,57.9,86,30.17,5.0,Calm,Calm,-,N/A,,Clear,0,2012-10-04 13:53:00
9:53 AM,69.1,60.1,73,30.18,10.0,NE,4.6,-,N/A,,Clear,50,2012-10-04 14:53:00
10:53 AM,75.0,60.1,60,30.18,9.0,Calm,Calm,-,N/A,,Clear,0,2012-10-04 15:53:00
11:09 AM,75.9,60.1,58,30.19,10.0,Calm,Calm,-,N/A,,Partly Cloudy,0,2012-10-04 16:09:00
11:53 AM,80.1,57.9,47,30.17,10.0,Variable,6.9,-,N/A,,Clear,0,2012-10-04 16:53:00
12:53 PM,82.0,55.0,39,30.16,10.0,SE,9.2,-,N/A,,Clear,140,2012-10-04 17:53:00
1:53 PM,84.0,57.9,41,30.12,10.0,South,6.9,-,N/A,,Clear,190,2012-10-04 18:53:00
2:53 PM,84.9,54.0,34,30.09,10.0,South,8.1,-,N/A,,Clear,180,2012-10-04 19:53:00
3:53 PM,86.0,53.1,32,30.07,10.0,South,10.4,-,N/A,,Clear,180,2012-10-04 20:53:00
4:53 PM,84.9,48.9,29,30.06,10.0,SE,6.9,-,N/A,,Clear,140,2012-10-04 21:53:00
5:53 PM,84.0,48.9,29,30.06,10.0,South,9.2,-,N/A,,Clear,170,2012-10-04 22:53:00
6:53 PM,78.1,52.0,40,30.07,10.0,SE,3.5,-,N/A,,Clear,140,2012-10-04 23:53:00
7:53 PM,70.0,59.0,68,30.08,10.0,ENE,3.5,-,N/A,,Overcast,70,2012-10-05 00:53:00
8:53 PM,70.0,62.1,76,30.10,10.0,Calm,Calm,-,N/A,,Overcast,0,2012-10-05 01:53:00
9:53 PM,73.0,57.0,57,30.11,10.0,ESE,3.5,-,N/A,,Scattered Clouds,120,2012-10-05 02:53:00
10:53 PM,64.9,61.0,87,30.11,9.0,Calm,Calm,-,N/A,,Scattered Clouds,0,2012-10-05 03:53:00
11:53 PM,64.0,60.1,87,30.10,8.0,NE,3.5,-,N/A,,Clear,40,2012-10-05 04:53:00